This is the latest recevied weather packets stored in our database for station/object SQ3VAS-10. If no packets are shown the sender has not sent any weather packets the latest 10 day(s).
| Time | Temp. | Humidity | Pressure | Rain* | Wind** | Luminosity | Snow |
|---|---|---|---|---|---|---|---|
| 1777508472 | 2.78° C | 65% | 1032.8 hPa | - | - | - | - |
| 1777507901 | 2.78° C | 66% | 1032.9 hPa | - | - | - | - |
| 1777507329 | 3.33° C | 65% | 1032.9 hPa | - | - | - | - |
| 1777506753 | 3.33° C | 64% | 1033 hPa | - | - | - | - |
| 1777506188 | 3.33° C | 63% | 1033 hPa | - | - | - | - |
| 1777505613 | 3.33° C | 63% | 1033 hPa | - | - | - | - |
| 1777505040 | 3.33° C | 63% | 1032.8 hPa | - | - | - | - |
| 1777504468 | 3.89° C | 62% | 1033.1 hPa | - | - | - | - |
| 1777503323 | 4.44° C | 59% | 1033.1 hPa | - | - | - | - |
| 1777502178 | 5° C | 58% | 1033 hPa | - | - | - | - |
| 1777501607 | 5° C | 56% | 1032.9 hPa | - | - | - | - |
| 1777501034 | 5.56° C | 54% | 1033 hPa | - | - | - | - |
| 1777499892 | 5.56° C | 55% | 1032.7 hPa | - | - | - | - |
| 1777499314 | 5.56° C | 53% | 1032.5 hPa | - | - | - | - |
| 1777498742 | 5.56° C | 54% | 1032.5 hPa | - | - | - | - |
| 1777498171 | 5.56° C | 54% | 1032.5 hPa | - | - | - | - |
| 1777497601 | 6.11° C | 52% | 1032.5 hPa | - | - | - | - |
| 1777496456 | 6.67° C | 48% | 1032.3 hPa | - | - | - | - |
| 1777495880 | 6.67° C | 48% | 1032.2 hPa | - | - | - | - |
| 1777495308 | 6.67° C | 46% | 1032.1 hPa | - | - | - | - |
| 1777494736 | 7.22° C | 45% | 1032.1 hPa | - | - | - | - |
| 1777493594 | 8.33° C | 44% | 1032 hPa | - | - | - | - |
| 1777493018 | 8.33° C | 41% | 1032.1 hPa | - | - | - | - |
| 1777492444 | 8.33° C | 41% | 1032 hPa | - | - | - | - |
| 1777491875 | 8.89° C | 40% | 1031.8 hPa | - | - | - | - |
* Rain since midnight (hover to see other rain measurements)
** Current wind speed in m/s (hover to see current wind gust speed)